Regional Weather Roundup
Issued by NWS Newport/Morehead, NC

Current Version | Previous Version | Graphics & Text | Print | Product List | Glossary On
Versions: 1 2 3 4 5 6 7 8 9 10 11 12 13 14 15 16 17 18 19 20 21 22 23 24 25 26 27 28 29 30 31 32 33 34 35 36 37 38 39 40 41 42 43 44 45 46 47 48 49 50
000 ASUS42 KMHX 200510 RWRMHX WEATHER ROUNDUP FOR EASTERN NORTH CAROLINA NATIONAL WEATHER SERVICE NEWPORT/MOREHEAD CITY NC 1200 AM EST SAT JAN 20 2018 NOTE: "FAIR" INDICATES FEW OR NO CLOUDS BELOW 12,000 FEET WITH NO SIGNIFICANT WEATHER AND/OR OBSTRUCTIONS TO VISIBILITY NCZ015>017-031-032-045>047-102-103-200600- NORTH COAST CITY SKY/WX TMP DP RH WIND PRES REMARKS EDENTON FAIR 41 26 53 SW5 30.15F ELIZABETH CITY FAIR 36 28 73 SW8 30.13F KITTY HAWK FAIR 37 27 66 SW3 30.12F MANTEO FAIR 36 30 79 CALM 30.15F $$ NCZ045>047-081-094-103-104-200600- CENTRAL COAST CITY SKY/WX TMP DP RH WIND PRES REMARKS FRISCO FAIR 46 35 65 W7 30.17F $$ NCZ095-097-098-100-101-200600- SOUTHERN COAST CITY SKY/WX TMP DP RH WIND PRES REMARKS BEAUFORT FAIR 42 35 76 SW8 30.19F CEDAR ISLAND NOT AVBL JACKSONVILLE FAIR 39 30 70 SW5 30.19F PINEY ISLAND NOT AVBL WILMINGTON FAIR 38 34 85 SW6 30.20F $$ NCZ011>013-027>030-043-044-078>080-089-090>093-098-200600- COASTAL PLAIN CITY SKY/WX TMP DP RH WIND PRES REMARKS AHOSKIE FAIR 33 22 65 CALM 30.14S CLINTON FAIR 31 26 83 CALM 30.19F ELIZABETHTOWN NOT AVBL GOLDSBORO FAIR 33 25 73 CALM 30.15F GREENVILLE FAIR 32 25 74 SW3 30.17F HAVELOCK NOT AVBL KENANSVILLE FAIR 27 23 86 CALM 30.18F KINSTON FAIR 31 26 78 SW5 30.18F NEW BERN FAIR 39 27 62 SW5 30.19F RICHLANDS FAIR 31 27 85 S3 30.19F ROCKY MOUNT NOT AVBL WASHINGTON FAIR 34 25 69 CALM 30.17S WHITEVILLE FAIR 33 29 85 SW5 30.20S $$ AMZ130-135-150-152-154-156-158-170-250-252-270-ANZ085-086-088-633-658-670-200600- MARINE OBSERVATIONS STATION/POSITION TIME TEMP WIND PRES WAVE SWELL AIR SEA DIR/SP/G HT/PER HT/PER (UTC) (F) (DEG/KT/KT) (MB) (FT/S) (FT/S) CHESAPEAKE LIGHT NOT AVBL 64 E VA BEACH NOT AVBL DUCK NOT AVBL 2 E DUCK NOT AVBL OREGON INLET NOT AVBL 13E OREGON INLT NOT AVBL HATTERAS CG NOT AVBL DIAMOND BUOY NOT AVBL CAPE LOOKOUT NOT AVBL BEAUFORT LAB NOT AVBL 30 SE NEW RVR IN NOT AVBL 30 SE NEW RVR IN NOT AVBL 27 SE WRIGHTSVLE NOT AVBL 5 SE WRIGHTSVLE NOT AVBL 225 S CAPE HAT NOT AVBL 41 SE CHARLESTON NOT AVBL $$

USA.gov is the U.S. government's official web portal to all federal, state and local government web resources and services.